This is the latest recevied weather packets stored in our database for station/object WA1TYB-13. If no packets are shown the sender has not sent any weather packets the latest 10 day(s).
| Time | Temp. | Humidity | Pressure | Rain* | Wind** | Luminosity | Snow |
|---|---|---|---|---|---|---|---|
| 1778175014 | 16.67° C | 50% | 1015.1 hPa | 0 mm | - | 197 W/m² | - |
| 1778174709 | 16.67° C | 49% | 1015.1 hPa | 0 mm | - | 218 W/m² | - |
| 1778174406 | 16.67° C | 55% | 1015.1 hPa | 0 mm | - | 433 W/m² | - |
| 1778174101 | 16.67° C | 55% | 1015.2 hPa | 0 mm | - | 824 W/m² | - |
| 1778173799 | 16.11° C | 56% | 1015.2 hPa | 0 mm | - | 712 W/m² | - |
| 1778173496 | 16.11° C | 57% | 1015.1 hPa | 0 mm | - | 668 W/m² | - |
| 1778173192 | 15.56° C | 58% | 1015.2 hPa | 0 mm | - | 778 W/m² | - |
| 1778172888 | 15.56° C | 58% | 1015.3 hPa | 0 mm | - | 279 W/m² | - |
| 1778172584 | 15.56° C | 60% | 1015.6 hPa | 0 mm | - | 609 W/m² | - |
| 1778172281 | 15.56° C | 59% | 1015.2 hPa | 0 mm | - | 845 W/m² | - |
| 1778171978 | 15.56° C | 60% | 1015.2 hPa | 0 mm | - | 605 W/m² | - |
| 1778171676 | 15° C | 62% | 1015.6 hPa | 0 mm | - | 715 W/m² | - |
| 1778171373 | 15° C | 62% | 1015.7 hPa | 0 mm | - | 702 W/m² | - |
| 1778171067 | 15° C | 62% | 1015.4 hPa | 0 mm | - | 678 W/m² | - |
| 1778170765 | 15° C | 65% | 1015.4 hPa | 0 mm | - | 584 W/m² | - |
| 1778170461 | 14.44° C | 64% | 1015.6 hPa | 0 mm | - | 577 W/m² | - |
| 1778170158 | 13.33° C | 67% | 1015.8 hPa | 0 mm | - | 649 W/m² | - |
| 1778169854 | 13.33° C | 67% | 1015.8 hPa | 0 mm | - | 345 W/m² | - |
| 1778169550 | 13.33° C | 66% | 1015.9 hPa | 0 mm | - | 190 W/m² | - |
| 1778169246 | 13.33° C | 66% | 1015.9 hPa | 0 mm | - | 201 W/m² | - |
| 1778168943 | 12.78° C | 65% | 1015.7 hPa | 0 mm | - | 158 W/m² | - |
| 1778168640 | 13.33° C | 65% | 1015.8 hPa | 0 mm | - | 228 W/m² | - |
| 1778168391 | 13.33° C | 66% | 1015.6 hPa | 0 mm | - | 240 W/m² | - |
| 1778168337 | 13.33° C | 66% | 1015.6 hPa | 0 mm | - | 240 W/m² | - |
| 1778168034 | 13.33° C | 67% | 1015.8 hPa | 0 mm | - | 583 W/m² | - |
* Rain latest hour (hover to see other rain measurements)
** Current wind speed in m/s (hover to see current wind gust speed)